This is the latest recevied weather packets stored in our database for station/object KJ5BMY-13. If no packets are shown the sender has not sent any weather packets the latest 10 day(s).
| Time | Temp. | Humidity | Pressure | Rain* | Wind** | Luminosity | Snow |
|---|---|---|---|---|---|---|---|
| 1778185417 | 25° C | 44% | 1017.9 hPa | 0 mm | - | - | - |
| 1778185113 | 25° C | 44% | 1018.2 hPa | 0 mm | - | - | - |
| 1778184809 | 25° C | 45% | 1018.1 hPa | 0 mm | - | - | - |
| 1778184505 | 25° C | 43% | 1018.4 hPa | 0 mm | - | - | - |
| 1778184201 | 25° C | 42% | 1018.2 hPa | 0 mm | - | - | - |
| 1778183897 | 25.56° C | 44% | 1018.3 hPa | 0 mm | - | - | - |
| 1778183595 | 25.56° C | 44% | 1018.5 hPa | 0 mm | - | - | - |
| 1778183292 | 25.56° C | 43% | 1018.6 hPa | 0 mm | - | - | - |
| 1778182988 | 25.56° C | 42% | 1018.4 hPa | 0 mm | - | - | - |
| 1778182685 | 25.56° C | 47% | 1018.6 hPa | 0 mm | - | - | - |
| 1778182382 | 25° C | 44% | 1018.6 hPa | 0 mm | - | - | - |
| 1778182077 | 26.11° C | 43% | 1018.7 hPa | 0 mm | - | - | - |
| 1778181774 | 25.56° C | 46% | 1018.8 hPa | 0 mm | - | - | - |
| 1778181471 | 25° C | 48% | 1018.8 hPa | 0 mm | - | - | - |
| 1778181167 | 25.56° C | 45% | 1019 hPa | 0 mm | - | - | - |
| 1778180864 | 25° C | 46% | 1019.2 hPa | 0 mm | - | - | - |
| 1778180563 | 25° C | 46% | 1018.9 hPa | 0 mm | - | - | - |
| 1778180261 | 24.44° C | 49% | 1018.9 hPa | 0 mm | - | - | - |
| 1778179957 | 24.44° C | 47% | 1019.3 hPa | 0 mm | - | - | - |
| 1778179655 | 24.44° C | 44% | 1019.2 hPa | 0 mm | - | - | - |
| 1778179353 | 23.89° C | 48% | 1019.2 hPa | 0 mm | - | - | - |
| 1778179049 | 24.44° C | 47% | 1019.3 hPa | 0 mm | - | - | - |
| 1778178746 | 24.44° C | 48% | 1019.5 hPa | 0 mm | - | - | - |
| 1778178444 | 23.89° C | 46% | 1019.3 hPa | 0 mm | - | - | - |
| 1778178139 | 23.89° C | 45% | 1019.7 hPa | 0 mm | - | - | - |
* Rain latest hour (hover to see other rain measurements)
** Current wind speed in m/s (hover to see current wind gust speed)